Terminal Aerodrome Forecast
Issued by NWS Aberdeen, SD

Home | Current Version | Previous Version | Text Only | Print | Product List | Glossary On
Versions: 1 2 3 4 5 6 7 8 9 10 11 12 13 14 15 16 17 18 19 20 21 22 23 24 25 26 27 28 29 30 31 32 33 34 35 36 37 38 39 40 41 42 43 44 45 46 47 48 49 50
000
FTAK31 PAFA 290202 AAB
TAFABR
TAF AMD
PABR 290202Z 2902/2924 13020KT 2SM BLSN OVC070
      TEMPO 2902/2905 6SM BR
     FM290500 17020KT 2SM BLSN SCT015 OVC080
     FM291500 25012KT 6SM BR BKN015 BKN050=

USA.gov is the U.S. government's official web portal to all federal, state and local government web resources and services.